GW1374 Weather Reports


Display with metric or nautical units.
time (UTC)temp
F
wind
direction
speed
MPH
gust
MPH
rain 1hr
in
rain 24hr
in
rain mn
in
humidity
%
barometer
mb
20260505024604 62 236 2.0 6.0 0.00 0.00 0.00 49 1005.8
20260505023049 62 219 2.0 5.0 0.00 0.00 0.00 49 1005.9
20260505021603 62 232 2.0 6.0 0.00 0.00 0.00 48 1006.1
20260505020046 63 190 2.0 5.0 0.00 0.00 0.00 47 1006.0
20260505014549 63 218 2.0 6.0 0.00 0.00 0.00 47 1006.0
20260505013047 63 221 3.0 5.0 0.00 0.00 0.00 47 1005.9
20260505011551 63 213 2.0 5.0 0.00 0.00 0.00 46 1005.8
20260505010054 63 205 2.0 5.0 0.00 0.00 0.00 46 1005.7
20260505004549 64 215 2.0 5.0 0.00 0.00 0.00 45 1005.5
20260505003050 64 201 2.0 5.0 0.00 0.00 0.00 45 1005.5
20260505001550 64 201 2.0 4.0 0.00 0.00 0.00 44 1005.3
20260505000048 65 209 2.0 6.0 0.00 0.00 0.00 42 1005.3
20260504234547 66 196 3.0 7.0 0.00 0.00 0.00 41 1005.0
20260504233055 67 225 2.0 6.0 0.00 0.00 0.00 40 1004.8
20260504231547 67 243 3.0 6.0 0.00 0.00 0.00 39 1004.8
20260504230051 67 210 3.0 6.0 0.00 0.00 0.00 38 1004.7
20260504224547 69 178 3.0 8.0 0.00 0.00 0.00 36 1004.8
20260504223053 69 247 1.0 6.0 0.00 0.00 0.00 33 1004.8
20260504221551 70 232 2.0 5.0 0.00 0.00 0.00 32 1004.6
20260504220104 70 247 2.0 7.0 0.00 0.00 0.00 33 1004.8
20260504214547 70 219 2.0 7.0 0.00 0.00 0.00 34 1004.8
20260504213040 70 165 3.0 8.0 0.00 0.00 0.00 33 1004.9
20260504211547 70 219 2.0 10.0 0.00 0.00 0.00 34 1004.8
20260504210040 68 360 3.0 7.0 0.00 0.00 0.00 37 1005.0
20260504204558 68 244 4.0 9.0 0.00 0.00 0.00 36 1005.1
20260504203046 68 187 2.0 8.0 0.00 0.00 0.00 38 1005.3
20260504201551 67 215 3.0 7.0 0.00 0.00 0.00 37 1005.6
20260504200044 67 227 4.0 8.0 0.00 0.00 0.00 37 1005.8
20260504194544 69 298 4.0 9.0 0.00 0.00 0.00 36 1006.0
20260504193051 67 257 3.0 10.0 0.00 0.00 0.00 37 1006.0
20260504191544 68 259 2.0 8.0 0.00 0.00 0.00 38 1006.1
20260504190047 69 255 3.0 10.0 0.00 0.00 0.00 37 1006.2
20260504184552 67 203 4.0 8.0 0.00 0.00 0.00 39 1006.3
20260504183040 67 228 2.0 8.0 0.00 0.00 0.00 40 1006.6
20260504181544 67 225 2.0 8.0 0.00 0.00 0.00 39 1006.6
20260504180048 67 235 3.0 11.0 0.00 0.00 0.00 38 1006.7
20260504174546 66 239 5.0 11.0 0.00 0.00 0.00 39 1006.7
20260504173042 67 210 3.0 7.0 0.00 0.00 0.00 40 1006.9
20260504171546 66 269 4.0 9.0 0.00 0.00 0.00 39 1006.9
20260504081548 43 238 1.0 3.0 0.00 0.00 0.00 62 1009.6
20260504044546 47 241 2.0 4.0 0.00 0.00 0.00 55 1009.7
20260504043052 47 241 1.0 3.0 0.00 0.00 0.00 54 1009.8
20260504041540 48 212 1.0 3.0 0.00 0.00 0.00 55 1009.8
20260504040045 48 239 1.0 3.0 0.00 0.00 0.00 54 1009.7
20260504034543 49 232 1.0 3.0 0.00 0.00 0.00 53 1009.7
20260504033049 49 209 1.0 2.0 0.00 0.00 0.00 52 1009.9
20260504031542 49 205 0.0 2.0 0.00 0.00 0.00 52 1009.8
20260504030046 50 0 0.0 3.0 0.00 0.00 0.00 52 1009.9